Location: Casteau
(50.5142°N, 4.0161°E)
Time: 21:05:31
(UTC+00:00)

Tiros 1 - Pass Details

Date: 07 August 2021
Orbit: 630 x 663 km, 48.4° (Epoch: 28 September)

Event Time Altitude Azimuth Distance (km) Brightness Sun altitude
Rises 15:32:12 0° 221° (SW) 2,985 11.3 34.1°
Reaches altitude 10° 15:34:45 10° 211° (SSW) 2,074 10.5 33.7°
Maximum altitude 15:38:56 31° 150° (SSE) 1,164 8.6 33.1°
Drops below altitude 10° 15:43:07 10° 89° (E) 2,071 9.3 32.4°
Sets 15:45:39 0° 79° (E) 2,980 10.0 32.0°
